EW0610 Weather Reports


Display with metric or nautical units.
time (UTC)temp
F
wind
direction
speed
MPH
gust
MPH
rain 1hr
in
rain 24hr
in
rain mn
in
humidity
%
barometer
mb
20260901140942 85 118 3.0 7.0 0.00 0.00 0.00 62 1017.1
20260901140429 85 176 4.0 7.0 0.00 0.00 0.00 62 1017.1
20260901135956 85 125 4.0 9.0 0.00 0.00 0.00 63 1017.2
20260901135439 84 117 4.0 9.0 0.00 0.00 0.00 63 1017.1
20260901134943 84 120 5.0 6.0 0.00 0.00 0.00 63 1017.0
20260901134427 83 118 3.0 7.0 0.00 0.00 0.00 64 1017.0
20260901134003 83 120 5.0 7.0 0.00 0.00 0.00 65 1017.0
20260901133427 83 126 2.0 6.0 0.00 0.00 0.00 65 1016.9
20260901132931 83 122 3.0 6.0 0.00 0.00 0.00 65 1016.9
20260901132433 82 120 4.0 5.0 0.00 0.00 0.00 66 1016.8
20260901131941 82 119 2.0 4.0 0.00 0.00 0.00 66 1016.8
20260901131445 82 120 3.0 6.0 0.00 0.00 0.00 66 1016.9
20260901130955 82 120 4.0 6.0 0.00 0.00 0.00 67 1016.9
20260901130442 82 153 3.0 5.0 0.00 0.00 0.00 67 1016.8
20260901125926 81 166 2.0 4.0 0.00 0.00 0.00 67 1016.7
20260901125456 81 168 2.0 4.0 0.00 0.00 0.00 67 1016.5
20260901124934 81 170 2.0 4.0 0.00 0.00 0.00 68 1016.5
20260901124443 81 174 3.0 4.0 0.00 0.00 0.00 67 1016.5
20260901123932 81 175 2.0 5.0 0.00 0.00 0.00 67 1016.5
20260901123438 81 177 2.0 5.0 0.00 0.00 0.00 67 1016.5
20260901122928 81 195 2.0 5.0 0.00 0.00 0.00 67 1016.3
20260901122430 81 208 2.0 4.0 0.00 0.00 0.00 66 1016.3
20260901121957 82 211 1.0 4.0 0.00 0.00 0.00 66 1016.3
20260901121454 82 211 2.0 4.0 0.00 0.00 0.00 66 1016.3
20260901120935 81 212 2.0 4.0 0.00 0.00 0.00 67 1016.3
20260901120445 81 214 1.0 2.0 0.00 0.00 0.00 67 1016.0
20260901115932 81 214 1.0 2.0 0.00 0.00 0.00 67 1016.0
20260901115442 81 214 1.0 2.0 0.00 0.00 0.00 67 1016.0
20260901114931 81 214 2.0 2.0 0.00 0.00 0.00 67 1016.0
20260901114438 81 214 1.0 3.0 0.00 0.00 0.00 66 1016.0
20260901113940 81 214 1.0 3.0 0.00 0.00 0.00 67 1015.9
20260901113432 81 214 0.0 2.0 0.00 0.00 0.00 66 1015.8
20260901112943 81 214 1.0 2.0 0.00 0.00 0.00 66 1015.8
20260901112452 81 214 0.0 2.0 0.00 0.00 0.00 66 1015.9
20260901111939 81 214 0.0 2.0 0.00 0.00 0.00 66 1015.8
20260901111429 81 214 0.0 1.0 0.00 0.00 0.00 66 1015.7
20260901110935 81 214 0.0 1.0 0.00 0.00 0.00 66 1015.7
20260901110435 81 214 0.0 2.0 0.00 0.00 0.00 64 1015.7
20260901105942 82 214 0.0 3.0 0.00 0.00 0.00 64 1015.7
20260901105427 82 214 2.0 3.0 0.00 0.00 0.00 64 1015.6
20260901104934 82 213 1.0 4.0 0.00 0.00 0.00 64 1015.6
20260901104440 82 213 1.0 4.0 0.00 0.00 0.00 63 1015.6
20260901103927 82 213 3.0 4.0 0.00 0.00 0.00 63 1015.6
20260901103439 82 212 1.0 3.0 0.00 0.00 0.00 63 1015.5
20260901102928 82 212 2.0 5.0 0.00 0.00 0.00 63 1015.6
20260901102427 83 212 2.0 5.0 0.00 0.00 0.00 62 1015.6
20260901101937 83 210 2.0 5.0 0.00 0.00 0.00 62 1015.6
20260901101443 83 207 3.0 5.0 0.00 0.00 0.00 62 1015.6
20260901100932 83 206 3.0 5.0 0.00 0.00 0.00 62 1015.5
20260901100438 83 207 2.0 6.0 0.00 0.00 0.00 61 1015.5
20260901095948 83 206 2.0 6.0 0.00 0.00 0.00 61 1015.6
20260901095434 83 201 3.0 5.0 0.00 0.00 0.00 61 1015.6
20260901094934 83 199 3.0 6.0 0.00 0.00 0.00 60 1015.6
20260901094436 84 196 4.0 6.0 0.00 0.00 0.00 60 1015.5
20260901093948 84 181 3.0 7.0 0.00 0.00 0.00 60 1015.6
20260901093432 84 204 4.0 7.0 0.00 0.00 0.00 60 1015.7
20260901092939 84 202 4.0 7.0 0.00 0.00 0.00 59 1015.7
20260901092426 84 204 5.0 7.0 0.00 0.00 0.00 59 1015.8
20260901091934 84 197 3.0 7.0 0.00 0.00 0.00 59 1015.9
20260901091443 84 201 4.0 9.0 0.00 0.00 0.00 58 1015.9
20260901090930 84 197 4.0 9.0 0.00 0.00 0.00 58 1015.9
20260901090449 84 216 5.0 10.0 0.00 0.00 0.00 58 1015.8
20260901085952 85 191 4.0 10.0 0.00 0.00 0.00 57 1015.7
20260901085438 85 183 5.0 9.0 0.00 0.00 0.00 57 1015.7
20260901084946 85 191 4.0 11.0 0.00 0.00 0.00 57 1015.6
20260901084437 85 187 7.0 11.0 0.00 0.00 0.00 56 1015.7
20260901083942 85 192 4.0 10.0 0.00 0.00 0.00 56 1015.6
20260901083427 85 175 5.0 10.0 0.00 0.00 0.00 56 1015.5
20260901082947 85 199 6.0 10.0 0.00 0.00 0.00 55 1015.6
20260901082453 85 187 4.0 10.0 0.00 0.00 0.00 55 1015.6
20260901081937 85 178 5.0 10.0 0.00 0.00 0.00 54 1015.7
20260901081430 86 202 6.0 10.0 0.00 0.00 0.00 54 1015.5
20260901080956 86 148 6.0 11.0 0.00 0.00 0.00 53 1015.4
20260901080445 86 132 5.0 11.0 0.00 0.00 0.00 53 1015.4
20260901075927 85 181 6.0 10.0 0.00 0.00 0.00 52 1015.4
20260901075436 86 135 6.0 10.0 0.00 0.00 0.00 51 1015.4
20260901074939 86 129 5.0 10.0 0.00 0.00 0.00 51 1015.4
20260901074446 86 135 4.0 7.0 0.00 0.00 0.00 51 1015.4
20260901073930 86 123 5.0 7.0 0.00 0.00 0.00 50 1015.4
20260901073423 86 127 4.0 8.0 0.00 0.00 0.00 50 1015.4
20260901072929 86 126 4.0 9.0 0.00 0.00 0.00 49 1015.4
20260901072506 86 127 5.0 9.0 0.00 0.00 0.00 49 1015.4
20260901071931 86 119 5.0 9.0 0.00 0.00 0.00 48 1015.3
20260901071442 86 126 5.0 9.0 0.00 0.00 0.00 48 1015.3
20260901070931 86 137 5.0 9.0 0.00 0.00 0.00 48 1015.3
20260901070437 86 118 3.0 5.0 0.00 0.00 0.00 48 1015.3
20260901065940 86 118 3.0 5.0 0.00 0.00 0.00 47 1015.3
20260901065440 86 118 2.0 5.0 0.00 0.00 0.00 47 1015.2
20260901064948 86 119 3.0 7.0 0.00 0.00 0.00 47 1015.2
20260901064428 86 122 4.0 7.0 0.00 0.00 0.00 46 1015.2
20260901063935 87 116 3.0 5.0 0.00 0.00 0.00 46 1015.2
20260901063507 87 119 4.0 8.0 0.00 0.00 0.00 45 1015.2
20260901062949 87 120 4.0 8.0 0.00 0.00 0.00 44 1015.1
20260901062437 87 125 2.0 7.0 0.00 0.00 0.00 44 1015.1
20260901061941 87 120 5.0 7.0 0.00 0.00 0.00 44 1015.0
20260901061431 88 125 3.0 7.0 0.00 0.00 0.00 43 1015.0
20260901060942 88 122 2.0 6.0 0.00 0.00 0.00 43 1014.9
20260901060456 88 125 3.0 6.0 0.00 0.00 0.00 43 1014.9
20260901055945 88 125 4.0 6.0 0.00 0.00 0.00 43 1014.8
20260901055449 88 126 4.0 6.0 0.00 0.00 0.00 42 1014.8
20260901054958 89 126 4.0 7.0 0.00 0.00 0.00 42 1014.8
20260901054427 89 120 5.0 7.0 0.00 0.00 0.00 41 1014.6
20260901053935 89 133 4.0 7.0 0.00 0.00 0.00 41 1014.6
20260901053436 89 148 4.0 6.0 0.00 0.00 0.00 41 1014.6
20260901052945 89 158 4.0 6.0 0.00 0.00 0.00 41 1014.5
20260901052427 89 148 4.0 6.0 0.00 0.00 0.00 41 1014.5
20260901051956 89 148 3.0 5.0 0.00 0.00 0.00 41 1014.4
20260901051436 89 131 3.0 6.0 0.00 0.00 0.00 41 1014.4
20260901050948 89 129 4.0 6.0 0.00 0.00 0.00 41 1014.3
20260901050432 89 162 4.0 7.0 0.00 0.00 0.00 40 1014.4
20260901045942 89 124 4.0 9.0 0.00 0.00 0.00 40 1014.4
20260901045448 89 129 5.0 9.0 0.00 0.00 0.00 40 1014.3
20260901044936 89 132 4.0 7.0 0.00 0.00 0.00 40 1014.4
20260901044442 89 126 3.0 7.0 0.00 0.00 0.00 40 1014.3
20260901043928 89 122 5.0 6.0 0.00 0.00 0.00 40 1014.3
20260901043438 89 125 3.0 6.0 0.00 0.00 0.00 40 1014.2
20260901042925 89 124 3.0 7.0 0.00 0.00 0.00 40 1014.3
20260901042433 90 124 4.0 7.0 0.00 0.00 0.00 40 1014.3
20260901041942 90 126 4.0 7.0 0.00 0.00 0.00 39 1014.2
20260901041432 90 131 4.0 6.0 0.00 0.00 0.00 39 1014.3
20260901040940 90 133 3.0 6.0 0.00 0.00 0.00 39 1014.4
20260901040431 90 128 4.0 6.0 0.00 0.00 0.00 39 1014.3
20260901035937 90 124 4.0 6.0 0.00 0.00 0.00 38 1014.3
20260901035442 90 126 4.0 6.0 0.00 0.00 0.00 38 1014.4
20260901034927 90 136 4.0 6.0 0.00 0.00 0.00 38 1014.4
20260901034435 90 134 3.0 6.0 0.00 0.00 0.00 38 1014.3
20260901033927 90 133 4.0 6.0 0.00 0.00 0.00 38 1014.3
20260901033501 91 135 4.0 6.0 0.00 0.00 0.00 38 1014.3
20260901033012 91 120 4.0 6.0 0.00 0.00 0.00 38 1014.3
20260901032437 91 121 3.0 6.0 0.00 0.00 0.00 38 1014.3
20260901031943 91 120 3.0 6.0 0.00 0.00 0.00 38 1014.2
20260901031454 91 126 3.0 5.0 0.00 0.00 0.00 39 1014.2
20260901030938 91 126 3.0 6.0 0.00 0.00 0.00 39 1014.2
20260901030428 91 126 3.0 6.0 0.00 0.00 0.00 38 1014.2
20260901025938 91 122 4.0 6.0 0.00 0.00 0.00 38 1014.1
20260901025430 91 130 3.0 6.0 0.00 0.00 0.00 38 1014.1
20260901024937 92 130 4.0 6.0 0.00 0.00 0.00 38 1014.1
20260901024439 92 131 4.0 6.0 0.00 0.00 0.00 37 1014.0
20260901023930 92 132 3.0 6.0 0.00 0.00 0.00 37 1013.9
20260901023436 92 132 2.0 6.0 0.00 0.00 0.00 37 1013.8
20260901022924 92 126 4.0 6.0 0.00 0.00 0.00 37 1013.8
20260901022435 92 129 3.0 6.0 0.00 0.00 0.00 36 1013.8
20260901021946 93 133 4.0 6.0 0.00 0.00 0.00 36 1013.6
20260901021456 93 131 3.0 6.0 0.00 0.00 0.00 36 1013.5
20260901020943 93 131 4.0 6.0 0.00 0.00 0.00 36 1013.5
20260901020444 93 135 4.0 6.0 0.00 0.00 0.00 36 1013.5
20260901015927 93 137 3.0 5.0 0.00 0.00 0.00 36 1013.5
20260901015437 93 127 2.0 6.0 0.00 0.00 0.00 35 1013.4
20260901014941 94 127 3.0 6.0 0.00 0.00 0.00 35 1013.4
20260901014432 94 126 4.0 6.0 0.00 0.00 0.00 35 1013.3
20260901013958 94 120 3.0 5.0 0.00 0.00 0.00 35 1013.2
20260901013442 94 120 3.0 6.0 0.00 0.00 0.00 35 1013.3
20260901012938 94 119 3.0 6.0 0.00 0.00 0.00 35 1013.2
20260901012442 93 117 3.0 5.0 0.00 0.00 0.00 36 1013.1
20260901011927 93 112 3.0 4.0 0.00 0.00 0.00 36 1013.1
20260901011436 94 114 2.0 5.0 0.00 0.00 0.00 35 1013.0
20260901010930 95 115 2.0 5.0 0.00 0.00 0.00 34 1013.0
20260901010438 95 116 2.0 6.0 0.00 0.00 0.00 34 1013.0
20260901005926 95 118 3.0 6.0 0.00 0.00 0.00 33 1013.0
20260901005436 96 117 2.0 6.0 0.00 0.00 0.00 33 1013.1
20260901004938 96 114 2.0 6.0 0.00 0.00 0.00 33 1013.1
20260901004442 96 125 4.0 6.0 0.00 0.00 0.00 32 1013.1
20260901003930 96 129 3.0 8.0 0.00 0.00 0.00 32 1013.1
20260901003434 96 122 3.0 8.0 0.00 0.00 0.00 32 1013.0
20260901002941 97 115 4.0 7.0 0.00 0.00 0.00 32 1013.1
20260901002445 97 116 4.0 10.0 0.00 0.00 0.00 32 1013.1
20260901001934 97 129 5.0 10.0 0.00 0.00 0.00 31 1013.0
20260901001437 97 112 4.0 11.0 0.00 0.00 0.00 31 1013.1
20260901000927 97 106 7.0 15.0 0.00 0.00 0.00 31 1013.1
20260901000436 97 94 8.0 15.0 0.00 0.00 0.00 31 1013.0
20260831235938 98 91 9.0 16.0 0.00 0.00 0.00 31 1013.0
20260831235441 98 110 8.0 16.0 0.00 0.00 0.00 31 1013.0
20260831234944 98 116 5.0 14.0 0.00 0.00 0.00 30 1013.0
20260831234434 98 105 6.0 16.0 0.00 0.00 0.00 31 1013.0
20260831233938 99 120 7.0 16.0 0.00 0.00 0.00 31 1013.0
20260831233447 99 109 7.0 12.0 0.00 0.00 0.00 30 1012.9
20260831232932 100 118 6.0 10.0 0.00 0.00 0.00 30 1012.9
20260831232505 99 103 5.0 10.0 0.00 0.00 0.00 30 1012.9
20260831231930 99 126 5.0 12.0 0.00 0.00 0.00 30 1012.9
20260831231432 100 206 6.0 12.0 0.00 0.00 0.00 30 1012.9
20260831230936 100 129 4.0 12.0 0.00 0.00 0.00 30 1012.9
20260831230440 100 124 5.0 9.0 0.00 0.00 0.00 30 1012.9
20260831225928 100 169 5.0 9.0 0.00 0.00 0.00 30 1013.1
20260831225435 100 208 5.0 8.0 0.00 0.00 0.00 29 1013.0
20260831225006 101 127 4.0 10.0 0.00 0.00 0.00 28 1013.0
20260831224431 100 102 5.0 12.0 0.00 0.00 0.00 28 1013.0
20260831223936 100 181 5.0 12.0 0.00 0.00 0.00 29 1013.1
20260831223444 100 114 4.0 10.0 0.00 0.00 0.00 30 1013.1
20260831222927 101 129 3.0 14.0 0.00 0.00 0.00 30 1013.2
20260831222434 101 153 6.0 14.0 0.00 0.00 0.00 30 1013.2
20260831221946 100 181 3.0 12.0 0.00 0.00 0.00 30 1013.2
20260831221429 100 153 7.0 14.0 0.00 0.00 0.00 30 1013.2
20260831221001 99 197 5.0 14.0 0.00 0.00 0.00 30 1013.2
20260831220427 100 192 7.0 11.0 0.00 0.00 0.00 29 1013.3
20260831215928 100 170 4.0 12.0 0.00 0.00 0.00 30 1013.4
20260831215438 100 205 6.0 12.0 0.00 0.00 0.00 30 1013.5
20260831214943 101 126 8.0 13.0 0.00 0.00 0.00 29 1013.6
20260831214429 101 139 7.0 13.0 0.00 0.00 0.00 29 1013.7
20260831214007 101 185 3.0 11.0 0.00 0.00 0.00 30 1013.6
20260831213452 101 217 6.0 14.0 0.00 0.00 0.00 30 1013.7
20260831212937 101 176 9.0 14.0 0.00 0.00 0.00 30 1013.8
20260831212445 101 218 7.0 12.0 0.00 0.00 0.00 30 1013.7
20260831211930 101 136 6.0 12.0 0.00 0.00 0.00 30 1013.8
20260831211435 101 137 6.0 12.0 0.00 0.00 0.00 31 1013.9
20260831210945 101 208 5.0 12.0 0.00 0.00 0.00 30 1013.8
20260831210428 100 124 5.0 12.0 0.00 0.00 0.00 31 1013.9
20260831205939 101 148 6.0 13.0 0.00 0.00 0.00 31 1014.0
20260831205432 100 203 7.0 14.0 0.00 0.00 0.00 32 1014.0
20260831204943 100 244 5.0 14.0 0.00 0.00 0.00 30 1014.1
20260831204433 101 158 5.0 12.0 0.00 0.00 0.00 30 1014.3
20260831203938 101 115 5.0 10.0 0.00 0.00 0.00 29 1014.4
20260831203439 100 116 4.0 11.0 0.00 0.00 0.00 29 1014.4
20260831203015 101 127 6.0 14.0 0.00 0.00 0.00 30 1014.5
20260831202457 101 153 6.0 15.0 0.00 0.00 0.00 30 1014.5
20260831201943 101 133 7.0 15.0 0.00 0.00 0.00 31 1014.6
20260831201431 100 131 5.0 12.0 0.00 0.00 0.00 30 1014.6
20260831200935 100 148 3.0 11.0 0.00 0.00 0.00 32 1014.6
20260831200444 100 192 5.0 11.0 0.00 0.00 0.00 32 1014.7
20260831195949 100 162 7.0 10.0 0.00 0.00 0.00 31 1014.7
20260831195440 99 164 5.0 12.0 0.00 0.00 0.00 33 1014.8
20260831194950 100 171 7.0 12.0 0.00 0.00 0.00 32 1014.9
20260831194432 98 136 2.0 14.0 0.00 0.00 0.00 34 1014.9
20260831193940 99 124 5.0 11.0 0.00 0.00 0.00 31 1015.1
20260831193433 101 227 5.0 12.0 0.00 0.00 0.00 30 1015.1
20260831192935 100 127 7.0 15.0 0.00 0.00 0.00 32 1015.2
20260831192443 100 122 9.0 16.0 0.00 0.00 0.00 32 1015.2
20260831191927 100 114 7.0 13.0 0.00 0.00 0.00 33 1015.3
20260831191439 98 148 6.0 13.0 0.00 0.00 0.00 34 1015.4
20260831190951 99 131 10.0 13.0 0.00 0.00 0.00 33 1015.3
20260831190436 99 191 8.0 13.0 0.00 0.00 0.00 33 1015.3
20260831190007 98 104 6.0 13.0 0.00 0.00 0.00 34 1015.4
20260831185432 98 120 5.0 14.0 0.00 0.00 0.00 34 1015.5
20260831185006 99 129 8.0 14.0 0.00 0.00 0.00 35 1015.6
20260831184428 99 158 5.0 13.0 0.00 0.00 0.00 33 1015.5
20260831183942 98 208 5.0 13.0 0.00 0.00 0.00 37 1015.6
20260831183428 97 116 5.0 13.0 0.00 0.00 0.00 36 1015.6
20260831182933 97 195 4.0 12.0 0.00 0.00 0.00 36 1015.7
20260831182507 98 134 4.0 12.0 0.00 0.00 0.00 36 1015.8
20260831181932 98 193 4.0 11.0 0.00 0.00 0.00 36 1015.8
20260831181436 98 158 4.0 11.0 0.00 0.00 0.00 36 1015.9
20260831180939 98 196 6.0 11.0 0.00 0.00 0.00 36 1016.1
20260831180431 98 153 8.0 17.0 0.00 0.00 0.00 36 1016.2
20260831175941 97 158 5.0 17.0 0.00 0.00 0.00 37 1016.2
20260831175503 97 106 10.0 16.0 0.00 0.00 0.00 37 1016.2
20260831174936 97 191 3.0 11.0 0.00 0.00 0.00 38 1016.4
20260831174443 97 116 5.0 13.0 0.00 0.00 0.00 37 1016.5
20260831173930 97 153 5.0 13.0 0.00 0.00 0.00 38 1016.6
20260831173439 97 189 9.0 13.0 0.00 0.00 0.00 37 1016.6
20260831172943 97 143 5.0 12.0 0.00 0.00 0.00 37 1016.6
20260831172425 97 210 9.0 11.0 0.00 0.00 0.00 37 1016.7
20260831171939 97 92 5.0 9.0 0.00 0.00 0.00 37 1016.7
20260831171443 97 164 2.0 6.0 0.00 0.00 0.00 38 1016.9
20260831170930 97 172 3.0 10.0 0.00 0.00 0.00 38 1016.9
20260831170438 97 165 5.0 10.0 0.00 0.00 0.00 38 1016.9
20260831165931 96 178 3.0 6.0 0.00 0.00 0.00 40 1016.9
20260831165435 96 268 3.0 11.0 0.00 0.00 0.00 40 1016.9
20260831164943 95 179 3.0 11.0 0.00 0.00 0.00 40 1016.9
20260831164449 95 191 2.0 9.0 0.00 0.00 0.00 41 1016.9
20260831163927 94 196 3.0 9.0 0.00 0.00 0.00 41 1017.0
20260831163435 94 164 6.0 8.0 0.00 0.00 0.00 42 1017.1
20260831162937 94 170 5.0 10.0 0.00 0.00 0.00 42 1017.1
20260831162426 93 216 5.0 11.0 0.00 0.00 0.00 42 1017.0
20260831161933 93 205 6.0 12.0 0.00 0.00 0.00 41 1017.1
20260831161435 93 206 4.0 13.0 0.00 0.00 0.00 42 1017.1
20260831160941 93 239 9.0 13.0 0.00 0.00 0.00 42 1017.1
20260831160431 92 197 7.0 13.0 0.00 0.00 0.00 42 1017.1
20260831155933 93 224 7.0 13.0 0.00 0.00 0.00 42 1017.2
20260831155441 92 237 6.0 11.0 0.00 0.00 0.00 43 1017.2
20260831154949 92 218 6.0 10.0 0.00 0.00 0.00 42 1017.0
20260831154431 92 179 4.0 10.0 0.00 0.00 0.00 44 1017.1
20260831153932 91 158 7.0 13.0 0.00 0.00 0.00 44 1017.1
20260831153436 91 191 6.0 13.0 0.00 0.00 0.00 45 1017.0
20260831152926 90 193 7.0 12.0 0.00 0.00 0.00 46 1016.9
20260831152430 90 153 5.0 12.0 0.00 0.00 0.00 46 1016.9
20260831152005 90 229 8.0 13.0 0.00 0.00 0.00 45 1016.8
20260831151449 90 207 7.0 13.0 0.00 0.00 0.00 47 1016.9
20260831150932 90 229 4.0 11.0 0.00 0.00 0.00 50 1016.9
20260831150441 89 223 6.0 11.0 0.00 0.00 0.00 50 1016.9
20260831145925 89 215 5.0 11.0 0.00 0.00 0.00 51 1016.8
20260831145426 88 210 5.0 12.0 0.00 0.00 0.00 51 1016.8
20260831144935 88 210 4.0 12.0 0.00 0.00 0.00 52 1016.9
20260831144436 88 227 5.0 11.0 0.00 0.00 0.00 53 1016.9
20260831143945 87 242 4.0 11.0 0.00 0.00 0.00 54 1016.9
20260831143431 87 229 9.0 11.0 0.00 0.00 0.00 54 1017.0
20260831142936 87 227 5.0 11.0 0.00 0.00 0.00 55 1016.9
20260831142500 86 210 5.0 12.0 0.00 0.00 0.00 56 1016.8
20260831141944 86 206 7.0 13.0 0.00 0.00 0.00 55 1016.9
20260831141448 86 210 6.0 13.0 0.00 0.00 0.00 57 1016.9